Content
SEND FEEDBACK

Daily
Averages
Monthly
Summary
Paraguay

PRESIDENTE FRANCO, PARAGUAY


Home > South America > Paraguay
Elevation: 646 feet     Latitude: 25 32S     Longitude: 054 37W

WEATHER
 
SELECT A DAY
Number of Records: 188,756;   Date Range: 6/30/96 - 12/18/14
 
SHARE

PRINT THIS DATA

[ ← Previous Day ]
WEATHER ALMANAC - JULY 30, 2014
[ Next Day → ]
[ °C ]   °F
Weather ElementAverageHighLow
Temperature65.8 °F73.4 °F (2:00 pm)60.8 °F (7:00 am)
Dewpoint60 °F62.6 °F (1:00 pm)57.2 °F (5:00 am)
Humidity81.3 %94 % (9:00 pm)68 % (12:00 pm)
Barometer30.15 in30.18 in (1:00 am)30.09 in (11:00 pm)
Wind Speed8.2 mph12.7 mph (2:00 am)
Weather ElementAverage
Visibility7 mi
Wind DirectionESE (111.7 °)

Weather ElementTotal
Precipitation---
Cooling Degree Days2.1 (Base 65)
Growing Degree Days17.1 (Base 50)
Averaged from 24 records on July 30, 2014
WEATHER CONDITIONS BREAKOUT
WIND DIRECTION BREAKOUT
WEATHER BY HOUR - JULY 30, 2014
[ °C ]   °F
Local TimeTemperatureDewpointHumidityBarometerVisibilityWind DirectionWind SpeedGust SpeedPrecipitationEventsConditions
1:00 AM66.2 °F59.0 °F78 %30.18 inENE (70°)11.5 mphClear
2:00 AM64.4 °F59.0 °F83 %30.18 inEast (80°)12.7 mphClear
3:00 AM64.0 °F58.0 °F75 %30.17 in12.0 miEast (80°)9.2 mph
3:00 AM64.4 °F59.0 °F83 %30.18 inEast (80°)9.2 mphClear
5:00 AM62.6 °F57.2 °F82 %30.15 inEast (80°)8.1 mphClear
6:00 AM62.6 °F57.2 °F82 %30.15 inENE (70°)9.2 mphClear
7:00 AM60.8 °F57.2 °F88 %30.18 inEast (80°)9.2 mphClear
8:00 AM60.8 °F57.2 °F88 %30.18 inENE (70°)9.2 mphClear
9:00 AM62.6 °F57.2 °F82 %30.18 inENE (70°)9.2 mphClear
10:00 AM64.4 °F57.2 °F77 %30.18 inENE (70°)11.5 mphClear
11:00 AM68.0 °F59.0 °F73 %30.18 inENE (70°)9.2 mphClear
12:00 PM69.8 °F59.0 °F68 %30.18 in6.2 miEast (80°)5.8 mphScattered Clouds
1:00 PM71.6 °F62.6 °F73 %30.15 in6.2 miEast (100°)5.8 mphScattered Clouds
2:00 PM73.4 °F62.6 °F69 %30.15 in6.2 miSouth (180°)9.2 mphScattered Clouds
3:00 PM71.6 °F62.6 °F73 %30.12 in6.2 miSSE (160°)9.2 mphMostly Cloudy
4:00 PM69.8 °F60.8 °F73 %30.12 in6.2 miSSE (150°)9.2 mphMostly Cloudy
5:00 PM68.0 °F62.6 °F83 %30.12 in6.2 miSSE (150°)6.9 mphMostly Cloudy
6:00 PM66.2 °F60.8 °F83 %30.12 in6.2 miSouth (170°)6.9 mphMostly Cloudy
7:00 PM66.2 °F60.8 °F83 %30.12 in6.2 miSSE (150°)6.9 mphMostly Cloudy
8:00 PM64.4 °F60.8 °F88 %30.12 in6.2 miSSE (150°)8.1 mphMostly Cloudy
9:00 PM65.0 °F62.0 °F86 %30.14 in12.0 miSSE (150°)4.6 mphScattered Clouds
9:00 PM64.4 °F62.6 °F94 %30.15 in6.2 miSSE (150°)4.6 mphMostly Cloudy
10:00 PM64.4 °F62.6 °F94 %30.12 in6.2 miSE (140°)3.5 mphMostly Cloudy
11:00 PM64.4 °F62.6 °F94 %30.09 in6.2 miSE (130°)6.9 mphMostly Cloudy
Hourly data recorded from SBFI, located miles away from Presidente Franco, Paraguay







STORIES FROM OUR PARTNERS